H1 CPF 2 NER 2021 3 31 9 090 01 glonass132 H2 1401201 9132 39620 2021 3 31 0 0 0 2021 4 3 23 45 0 900 1 1 0 0 0 1 H9 10 0 59304 0.00000 0 -13500323.754 7054423.957 -20426867.517 10 0 59304 900.00000 0 -15916119.306 6849692.224 -18678927.599 10 0 59304 1800.00000 0 -18103650.348 6843299.555 -16566930.009 10 0 59304 2700.00000 0 -20005675.045 7001535.337 -14131939.383 10 0 59304 3600.00000 0 -21574349.829 7281285.879 -11421364.304 10 0 59304 4500.00000 0 -22773076.570 7632047.242 -8488028.462 10 0 59304 5400.00000 0 -23577890.450 7998264.768 -5389131.147 10 0 59304 6300.00000 0 -23978329.329 8321898.836 -2185118.184 10 0 59304 7200.00000 0 -23977747.751 8545106.184 1061513.207 10 0 59304 8100.00000 0 -23593062.762 8612921.058 4287450.601 10 0 59304 9000.00000 0 -22853943.193 8475820.334 7429817.676 10 0 59304 9900.00000 0 -21801478.127 8092062.034 10427414.246 10 0 59304 10800.00000 0 -20486382.644 7429696.629 13221919.259 10 0 59304 11700.00000 0 -18966818.591 6468164.955 15759032.101 10 0 59304 12600.00000 0 -17305924.280 5199414.797 17989529.189 10 0 59304 13500.00000 0 -15569158.820 3628489.006 19870215.259 10 0 59304 14400.00000 0 -13821573.917 1773560.843 21364751.378 10 0 59304 15300.00000 0 -12125128.225 -334584.252 22444344.633 10 0 59304 16200.00000 0 -10536156.598 -2653597.991 23088287.651 10 0 59304 17100.00000 0 -9103099.133 -5131105.212 23284339.295 10 0 59304 18000.00000 0 -7864583.373 -7706661.997 23028940.981 10 0 59304 18900.00000 0 -6847937.603 -10314054.410 22327266.289 10 0 59304 19800.00000 0 -6068194.833 -12883842.828 21193104.387 10 0 59304 20700.00000 0 -5527626.584 -15346046.989 19648580.755 10 0 59304 21600.00000 0 -5215823.545 -17632861.693 17723721.317 10 0 59304 22500.00000 0 -5110317.715 -19681292.068 15455868.675 10 0 59304 23400.00000 0 -5177718.526 -21435600.706 12888961.574 10 0 59304 24300.00000 0 -5375314.368 -22849466.859 10072690.964 10 0 59304 25200.00000 0 -5653072.000 -23887769.549 7061548.095 10 0 59304 26100.00000 0 -5955950.000 -24527921.673 3913782.040 10 0 59304 27000.00000 0 -6226429.496 -24760700.579 690285.672 10 0 59304 27900.00000 0 -6407156.380 -24590540.992 -2546569.566 10 0 59304 28800.00000 0 -6443584.395 -24035278.022 -5734128.496 10 0 59304 29700.00000 0 -6286508.333 -23125350.802 -8810654.522 10 0 59304 30600.00000 0 -5894380.650 -21902499.149 -11716516.930 10 0 59304 31500.00000 0 -5235313.689 -20418006.907 -14395340.716 10 0 59304 32400.00000 0 -4288682.387 -18730564.450 -16795097.121 10 0 59304 33300.00000 0 -3046258.557 -16903838.455 -18869113.978 10 0 59304 34200.00000 0 -1512827.118 -15003849.618 -20576986.252 10 0 59304 35100.00000 0 293744.022 -13096267.106 -21885368.966 10 0 59304 36000.00000 0 2342986.145 -11243732.266 -22768636.750 10 0 59304 36900.00000 0 4592846.621 -9503323.231 -23209396.503 10 0 59304 37800.00000 0 6991200.849 -7924266.506 -23198842.395 10 0 59304 38700.00000 0 9477798.701 -6545991.563 -22736945.180 10 0 59304 39600.00000 0 11986566.224 -5396610.546 -21832470.843 10 0 59304 40500.00000 0 14448168.108 -4491887.499 -20502826.864 10 0 59304 41400.00000 0 16792724.805 -3834741.105 -18773737.648 10 0 59304 42300.00000 0 18952570.922 -3415302.541 -16678754.207 10 0 59304 43200.00000 0 20864939.126 -3211526.387 -14258606.592 10 0 59304 44100.00000 0 22474456.326 -3190328.854 -11560411.040 10 0 59304 45000.00000 0 23735346.210 -3309204.893 -8636747.152 10 0 59304 45900.00000 0 24613244.460 -3518254.813 -5544623.423 10 0 59304 46800.00000 0 25086549.210 -3762533.211 -2344352.164 10 0 59304 47700.00000 0 25147249.183 -3984618.822 901642.837 10 0 59304 48600.00000 0 24801194.413 -4127294.213 4130060.979 10 0 59304 49500.00000 0 24067798.564 -4136219.467 7277975.933 10 0 59304 50400.00000 0 22979186.381 -3962484.401 10284076.778 10 0 59304 51300.00000 0 21578823.764 -3564929.383 13089873.403 10 0 59304 52200.00000 0 19919690.000 -2912135.111 15640841.433 10 0 59304 53100.00000 0 18062071.076 -1983996.486 17887483.577 10 0 59304 54000.00000 0 16071068.667 -772813.851 19786286.649 10 0 59304 54900.00000 0 14013930.767 716144.174 21300556.152 10 0 59304 55800.00000 0 11957316.779 2464629.280 22401113.197 10 0 59304 56700.00000 0 9964611.631 4441953.252 23066841.751 10 0 59304 57600.00000 0 8093400.508 6606055.584 23285077.367 10 0 59304 58500.00000 0 6393208.337 8905053.724 23051831.717 10 0 59304 59400.00000 0 4903596.267 11279211.029 22371850.414 10 0 59304 60300.00000 0 3652692.056 13663240.685 21258504.526 10 0 59304 61200.00000 0 2656213.047 15988850.279 19733519.127 10 0 59304 62100.00000 0 1917019.798 18187422.258 17826544.876 10 0 59304 63000.00000 0 1425216.541 20192720.308 15574581.197 10 0 59304 63900.00000 0 1158792.349 21943510.575 13021262.085 10 0 59304 64800.00000 0 1084774.640 23385990.471 10216017.816 10 0 59304 65700.00000 0 1160845.812 24475925.472 7213127.866 10 0 59304 66600.00000 0 1337354.869 25180406.174 4070682.426 10 0 59304 67500.00000 0 1559639.612 25479153.400 849471.376 10 0 59304 68400.00000 0 1770562.233 25365317.412 -2388178.897 10 0 59304 69300.00000 0 1913152.184 24845737.899 -5579599.376 10 0 59304 70200.00000 0 1933245.554 23940653.457 -8662980.833 10 0 59304 71100.00000 0 1782010.086 22682871.877 -11578562.345 10 0 59304 72000.00000 0 1418249.501 21116434.971 -14269783.423 10 0 59304 72900.00000 0 810389.545 19294832.338 -16684377.931 10 0 59304 73800.00000 0 -61938.871 17278837.353 -18775388.830 10 0 59304 74700.00000 0 -1206787.551 15134054.495 -20502084.044 10 0 59304 75600.00000 0 -2619298.813 12928279.180 -21830755.563 10 0 59304 76500.00000 0 -4281660.547 10728779.412 -22735385.880 10 0 59304 77400.00000 0 -6163613.139 8599612.150 -23198168.132 10 0 59304 78300.00000 0 -8223489.878 6599086.082 -23209869.033 10 0 59304 79200.00000 0 -10409750.015 4777476.792 -22770026.423 10 0 59304 80100.00000 0 -12662942.667 3175090.135 -21886976.324 10 0 59304 81000.00000 0 -14918021.311 1820755.333 -20577707.618 10 0 59304 81900.00000 0 -17106913.347 730811.452 -18867545.753 10 0 59304 82800.00000 0 -19161237.654 -91369.604 -16789670.398 10 0 59304 83700.00000 0 -21015056.251 -655303.190 -14384475.382 10 0 59304 84600.00000 0 -22607544.002 -982758.440 -11698782.694 10 0 59304 85500.00000 0 -23885463.078 -1106598.206 -8784925.725 10 0 59305 0.00000 0 -24805336.910 -1069142.291 -5699719.960 10 0 59305 900.00000 0 -25335230.458 -920124.621 -2503341.643 10 0 59305 1800.00000 0 -25456061.631 -714332.321 741861.359 10 0 59305 2700.00000 0 -25162386.128 -509029.434 3972602.932 10 0 59305 3600.00000 0 -24462624.428 -361276.171 7125909.504 10 0 59305 4500.00000 0 -23378720.386 -325260.004 10140362.262 10 0 59305 5400.00000 0 -21945247.515 -449753.557 12957304.880 10 0 59305 6300.00000 0 -20208001.880 -775808.604 15521992.019 10 0 59305 7200.00000 0 -18222142.569 -1334784.770 17784655.315 10 0 59305 8100.00000 0 -16049959.643 -2146796.701 19701466.052 10 0 59305 9000.00000 0 -13758364.654 -3219645.170 21235376.224 10 0 59305 9900.00000 0 -11416209.960 -4548276.572 22356822.624 10 0 59305 10800.00000 0 -9091549.306 -6114792.750 23044281.779 10 0 59305 11700.00000 0 -6848953.731 -7889009.879 23284666.724 10 0 59305 12600.00000 0 -4746993.711 -9829542.174 23073559.760 10 0 59305 13500.00000 0 -2835990.666 -11885364.623 22415278.529 10 0 59305 14400.00000 0 -1156129.157 -13997789.366 21322775.658 10 0 59305 15300.00000 0 263994.222 -16102773.564 19817375.168 10 0 59305 16200.00000 0 1408327.600 -18133463.333 17928351.528 10 0 59305 17100.00000 0 2273789.045 -20022868.910 15692359.790 10 0 59305 18000.00000 0 2870144.828 -21706560.939 13152727.748 10 0 59305 18900.00000 0 3219347.734 -23125277.083 10358623.294 10 0 59305 19800.00000 0 3354364.513 -24227331.752 7364112.203 10 0 59305 20700.00000 0 3317542.322 -24970729.746 4227123.631 10 0 59305 21600.00000 0 3158583.025 -25324896.610 1008342.155 10 0 59305 22500.00000 0 2932210.261 -25271953.908 -2229953.381 10 0 59305 23400.00000 0 2695626.927 -24807486.337 -5425082.739 10 0 59305 24300.00000 0 2505869.588 -23940768.046 -8515166.803 10 0 59305 25200.00000 0 2417170.732 -22694437.912 -11440317.273 10 0 59305 26100.00000 0 2478439.768 -21103636.155 -14143791.068 10 0 59305 27000.00000 0 2730968.971 -19214636.924 -16573087.551 10 0 59305 27900.00000 0 3206461.583 -17083032.294 -18680967.592 10 0 59305 28800.00000 0 3925466.183 -14771541.846 -20426374.664 10 0 59305 29700.00000 0 4896284.815 -12347537.734 -21775240.038 10 0 59305 30600.00000 0 6114402.889 -9880387.085 -22701156.025 10 0 59305 31500.00000 0 7562467.196 -7438721.628 -23185903.561 10 0 59305 32400.00000 0 9210815.657 -5087747.650 -23219823.042 10 0 59305 33300.00000 0 11018539.240 -2886708.142 -22802020.131 10 0 59305 34200.00000 0 12935033.991 -886603.110 -21940401.234 10 0 59305 35100.00000 0 14901980.232 871736.500 -20651536.610 10 0 59305 36000.00000 0 16855667.507 2359140.277 -18960352.363 10 0 59305 36900.00000 0 18729568.680 3559092.209 -16899656.045 10 0 59305 37800.00000 0 20457055.326 4468184.895 -14509504.067 10 0 59305 38700.00000 0 21974139.979 5096014.860 -11836422.531 10 0 59305 39600.00000 0 23222128.871 5464523.573 -8932496.498 10 0 59305 40500.00000 0 24150072.184 5606812.675 -5854345.730 10 0 59305 41400.00000 0 24716907.076 5565484.647 -2662007.660 10 0 59305 42300.00000 0 24893201.668 5390580.763 582249.225 10 0 59305 43200.00000 0 24662425.313 5137205.710 3815156.860 10 0 59305 44100.00000 0 24021690.858 4862941.799 6973698.090 10 0 59305 45000.00000 0 22981937.514 4625164.693 9996349.818 10 0 59305 45900.00000 0 21567547.102 4478376.572 12824292.991 10 0 59305 46800.00000 0 19815410.869 4471671.519 15402564.537 10 0 59305 47700.00000 0 17773487.493 4646441.658 17681127.961 10 0 59305 48600.00000 0 15498914.447 5034421.735 19615841.597 10 0 59305 49500.00000 0 13055753.328 5656154.791 21169306.133 10 0 59305 50400.00000 0 10512464.747 6519943.137 22311575.833 10 0 59305 51300.00000 0 7939218.951 7621327.947 23020721.131 10 0 59305 52200.00000 0 5405154.309 8943118.316 23283233.418 10 0 59305 53100.00000 0 2975697.234 10455967.467 23094266.011 10 0 59305 54000.00000 0 710053.642 12119471.138 22457708.442 10 0 59305 54900.00000 0 -1341025.827 13883741.666 21386094.247 10 0 59305 55800.00000 0 -3137116.247 15691391.857 19900345.253 10 0 59305 56700.00000 0 -4649549.537 17479846.159 18029358.136 10 0 59305 57600.00000 0 -5862349.447 19183883.468 15809441.590 10 0 59305 58500.00000 0 -6772634.003 20738306.513 13283614.909 10 0 59305 59400.00000 0 -7390470.833 22080627.737 10500781.063 10 0 59305 60300.00000 0 -7738193.208 23153660.909 7514789.406 10 0 59305 61200.00000 0 -7849206.474 23907911.427 4383405.207 10 0 59305 62100.00000 0 -7766335.596 24303666.369 1167204.802 10 0 59305 63000.00000 0 -7539783.280 24312697.705 -2071583.492 10 0 59305 63900.00000 0 -7224784.153 23919507.426 -5270271.194 10 0 59305 64800.00000 0 -6879053.188 23122062.032 -8366912.211 10 0 59305 65700.00000 0 -6560135.244 21931985.015 -11301493.647 10 0 59305 66600.00000 0 -6322766.869 20374197.893 -14017092.410 10 0 59305 67500.00000 0 -6216361.263 18486023.236 -16460975.700 10 0 59305 68400.00000 0 -6282722.500 16315785.281 -18585624.344 10 0 59305 69300.00000 0 -6554085.854 13920964.597 -20349659.127 10 0 59305 70200.00000 0 -7051567.837 11365981.923 -21718652.059 10 0 59305 71100.00000 0 -7784092.772 8719701.785 -22665806.437 10 0 59305 72000.00000 0 -8747843.012 6052758.592 -23172491.855 10 0 59305 72900.00000 0 -9926258.215 3434815.467 -23228622.941 10 0 59305 73800.00000 0 -11290586.199 931869.330 -22832873.383 10 0 59305 74700.00000 0 -12800964.549 -1396285.669 -21992719.802 10 0 59305 75600.00000 0 -14407989.784 -3498330.553 -20724313.278 10 0 59305 76500.00000 0 -16054709.860 -5333334.565 -19052179.615 10 0 59305 77400.00000 0 -17678957.438 -6872228.357 -17008752.928 10 0 59305 78300.00000 0 -19215926.311 -8098775.213 -14633750.561 10 0 59305 79200.00000 0 -20600882.426 -9009999.264 -11973400.798 10 0 59305 80100.00000 0 -21771894.489 -9616052.700 -9079538.223 10 0 59305 81000.00000 0 -22672467.793 -9939528.030 -6008584.616 10 0 59305 81900.00000 0 -23253968.624 -10014245.399 -2820436.008 10 0 59305 82800.00000 0 -23477735.208 -9883567.581 422721.027 10 0 59305 83700.00000 0 -23316784.640 -9598315.898 3657639.187 10 0 59305 84600.00000 0 -22757042.566 -9214377.497 6821260.543 10 0 59305 85500.00000 0 -21798043.123 -8790107.675 9851960.608 10 0 59306 0.00000 0 -20453069.624 -8383639.547 12690760.447 10 0 59306 900.00000 0 -18748730.212 -8050217.288 15282482.200 10 0 59306 1800.00000 0 -16723988.330 -7839666.325 17576823.876 10 0 59306 2700.00000 0 -14428688.507 -7794110.120 19529333.276 10 0 59306 3600.00000 0 -11921641.959 -7946028.307 21102261.859 10 0 59306 4500.00000 0 -9268352.527 -8316739.071 22265283.020 10 0 59306 5400.00000 0 -6538479.058 -8915368.236 22996062.317 10 0 59306 6300.00000 0 -3803140.129 -9738347.399 23280670.260 10 0 59306 7200.00000 0 -1132173.047 -10769460.815 23113831.504 10 0 59306 8100.00000 0 1408540.012 -11980437.840 22499007.417 10 0 59306 9000.00000 0 3759569.377 -13332065.142 21448312.039 10 0 59306 9900.00000 0 5870157.138 -14775771.491 19982264.293 10 0 59306 10800.00000 0 7700068.730 -16255618.747 18129382.082 10 0 59306 11700.00000 0 9221002.568 -17710616.124 15925626.495 10 0 59306 12600.00000 0 10417501.663 -19077261.721 13413706.810 10 0 59306 13500.00000 0 11287331.646 -20292206.083 10642259.287 10 0 59306 14400.00000 0 11841311.419 -21294927.650 7664914.806 10 0 59306 15300.00000 0 12102604.907 -22030309.267 4539272.464 10 0 59306 16200.00000 0 12105504.511 -22451008.995 1325797.846 10 0 59306 17100.00000 0 11893757.648 -22519526.656 -1913333.906 10 0 59306 18000.00000 0 11518506.492 -22209879.788 -5115428.825 10 0 59306 18900.00000 0 11035927.132 -21508818.659 -8218476.651 10 0 59306 19800.00000 0 10504666.791 -20416528.490 -11162342.727 10 0 59306 20700.00000 0 9983186.379 -18946788.326 -13889926.743 10 0 59306 21600.00000 0 9527119.806 -17126578.375 -16348266.449 10 0 59306 22500.00000 0 9186760.964 -14995149.989 -18489565.200 10 0 59306 23400.00000 0 9004784.346 -12602595.085 -20272123.454 10 0 59306 24300.00000 0 9014295.839 -10007972.442 -21661156.032 10 0 59306 25200.00000 0 9237296.773 -7277066.856 -22629478.932 10 0 59306 26100.00000 0 9683627.346 -4479872.743 -23158051.732 10 0 59306 27000.00000 0 10350435.661 -1687905.447 -23236364.199 10 0 59306 27900.00000 0 11222196.839 1028548.899 -22862658.545 10 0 59306 28800.00000 0 12271283.492 3603130.978 -22043981.716 10 0 59306 29700.00000 0 13459065.643 5975941.174 -20796065.367 10 0 59306 30600.00000 0 14737495.548 8095801.966 -19143034.424 10 0 59306 31500.00000 0 16051111.993 9922154.838 -17116948.644 10 0 59306 32400.00000 0 17339380.350 11426511.913 -14757185.045 10 0 59306 33300.00000 0 18539269.831 12593401.021 -12109672.478 10 0 59306 34200.00000 0 19587958.610 13420764.266 -9225993.063 10 0 59306 35100.00000 0 20425551.493 13919793.522 -6162368.238 10 0 59306 36000.00000 0 20997693.801 14114210.448 -2978549.937 10 0 59306 36900.00000 0 21257969.249 14039022.520 263360.157 10 0 59306 37800.00000 0 21169978.757 13738809.356 3500138.665 10 0 59306 38700.00000 0 20709010.845 13265613.882 6668690.141 10 0 59306 39600.00000 0 19863231.992 12676529.837 9707291.960 10 0 59306 40500.00000 0 18634346.182 12031090.139 12556808.562 10 0 59306 41400.00000 0 17037695.824 11388568.697 15161850.087 10 0 59306 42300.00000 0 15101800.381 10805311.585 17471851.899 10 0 59306 43200.00000 0 12867353.007 10332211.518 19442053.798 10 0 59306 44100.00000 0 10385718.330 10012432.740 21034360.224 10 0 59306 45000.00000 0 7716995.466 9879482.105 22218065.580 10 0 59306 45900.00000 0 4927727.954 9955706.755 22970432.047 10 0 59306 46800.00000 0 2088356.549 10251280.340 23277110.325 10 0 59306 47700.00000 0 -729479.178 10763718.798 23132397.007 10 0 59306 48600.00000 0 -3455679.028 11477944.427 22539325.388 10 0 59306 49500.00000 0 -6024347.839 12366894.087 21509589.572 10 0 59306 50400.00000 0 -8376279.774 13392644.937 20063304.601 10 0 59306 51300.00000 0 -10461160.480 14508009.858 18228608.137 10 0 59306 52200.00000 0 -12239398.220 15658535.618 16041111.754 10 0 59306 53100.00000 0 -13683510.343 16784820.373 13543212.451 10 0 59306 54000.00000 0 -14779009.880 17825054.184 10783277.260 10 0 59306 54900.00000 0 -15524757.393 18717677.111 7814715.890 10 0 59306 55800.00000 0 -15932764.965 19404044.504 4694958.475 10 0 59306 56700.00000 0 -16027461.731 19830988.849 1484357.009 10 0 59306 57600.00000 0 -15844452.259 19953171.527 -1754969.403 10 0 59306 58500.00000 0 -15428819.896 19735126.199 -4960324.173 10 0 59306 59400.00000 0 -14833046.026 19152908.088 -8069635.697 10 0 59306 60300.00000 0 -14114632.029 18195279.295 -11022650.281 10 0 59306 61200.00000 0 -13333523.283 16864379.437 -13762093.009 10 0 59306 62100.00000 0 -12549442.846 15175851.826 -16234774.590 10 0 59306 63000.00000 0 -11819246.462 13158417.861 -18392623.079 10 0 59306 63900.00000 0 -11194409.912 10852915.161 -20193620.478 10 0 59306 64800.00000 0 -10718754.513 8310837.011 -21602625.969 10 0 59306 65700.00000 0 -10426506.997 5592431.647 -22592069.479 10 0 59306 66600.00000 0 -10340776.300 2764438.405 -23142501.438 10 0 59306 67500.00000 0 -10472512.689 -102446.948 -23242987.269 10 0 59306 68400.00000 0 -10819994.580 -2936273.676 -22891337.848 10 0 59306 69300.00000 0 -11368866.467 -5666592.771 -22094170.211 10 0 59306 70200.00000 0 -12092728.099 -8227154.623 -20866795.958 10 0 59306 71100.00000 0 -12954251.750 -10558435.254 -19232938.127 10 0 59306 72000.00000 0 -13906781.756 -12609885.304 -17224280.770 10 0 59306 72900.00000 0 -14896349.667 -14341807.258 -14879858.921 10 0 59306 73800.00000 0 -15864020.177 -15726781.758 -12245300.096 10 0 59306 74700.00000 0 -16748468.344 -16750582.621 -9371931.863 10 0 59306 75600.00000 0 -17488678.169 -17412541.993 -6315773.100 10 0 59306 76500.00000 0 -18026646.929 -17725350.533 -3136429.310 10 0 59306 77400.00000 0 -18309979.089 -17714301.799 104085.128 10 0 59306 78300.00000 0 -18294258.138 -17416014.071 3342573.275 10 0 59306 79200.00000 0 -17945094.261 -16876685.440 6515904.774 10 0 59306 80100.00000 0 -17239759.832 -16149958.051 9562261.545 10 0 59306 81000.00000 0 -16168342.652 -15294484.148 12422354.070 10 0 59306 81900.00000 0 -14734367.837 -14371299.053 15040583.287 10 0 59306 82800.00000 0 -12954862.280 -13441114.012 17366124.475 10 0 59306 83700.00000 0 -10859859.523 -12561644.667 19353911.817 10 0 59306 84600.00000 0 -8491366.641 -11785088.596 20965504.849 10 0 59306 85500.00000 0 -5901837.413 -11155858.289 22169820.746 10 0 59307 0.00000 0 -3152216.458 -10708664.251 22943719.667 10 0 59307 900.00000 0 -309636.199 -10467027.894 23272433.469 10 0 59307 1800.00000 0 2555136.798 -10442284.021 23149831.219 10 0 59307 2700.00000 0 5370400.897 -10633114.570 22578518.286 10 0 59307 3600.00000 0 8066252.745 -11025629.408 21569768.642 10 0 59307 4500.00000 0 10577242.766 -11593990.454 20143292.938 10 0 59307 5400.00000 0 12844844.802 -12301551.118 18326847.778 10 0 59307 6300.00000 0 14819639.676 -13102462.704 16155694.112 10 0 59307 7200.00000 0 16463124.280 -13943680.192 13671915.248 10 0 59307 8100.00000 0 17749073.366 -14767283.547 10923607.254 10 0 59307 9000.00000 0 18664399.414 -15513017.820 7963956.612 10 0 59307 9900.00000 0 19209476.426 -16120946.358 4850222.111 10 0 59307 10800.00000 0 19397915.428 -16534106.686 1642639.500 10 0 59307 11700.00000 0 19255801.729 -16701058.355 -1596731.024 10 0 59307 12600.00000 0 18820426.209 -16578216.358 -4805193.240 10 0 59307 13500.00000 0 18138563.507 -16131872.203 -7920617.248 10 0 59307 14400.00000 0 17264368.810 -15339817.337 -10882633.335 10 0 59307 15300.00000 0 16256980.883 -14192499.964 -13633794.887 10 0 59307 16200.00000 0 15177931.144 -12693665.221 -16120688.339 10 0 59307 17100.00000 0 14088466.893 -10860449.920 -18294969.009 10 0 59307 18000.00000 0 13046900.570 -8722925.509 -20114302.761 10 0 59307 18900.00000 0 12106096.153 -6323105.772 -21543195.171 10 0 59307 19800.00000 0 11311198.394 -3713457.942 -22553691.763 10 0 59307 20700.00000 0 10697700.765 -954976.868 -23125935.105 10 0 59307 21600.00000 0 10289934.148 1885099.910 -23248567.132 10 0 59307 22500.00000 0 10100040.934 4735842.895 -22918967.820 10 0 59307 23400.00000 0 10127479.039 7525342.318 -22143324.305 10 0 59307 24300.00000 0 10359078.161 10183468.686 -20936527.756 10 0 59307 25200.00000 0 10769647.275 12644567.460 -19321898.567 10 0 59307 26100.00000 0 11323108.923 14849975.206 -17330743.978 10 0 59307 27000.00000 0 11974113.217 16750251.581 -15001755.592 10 0 59307 27900.00000 0 12670063.648 18307033.094 -12380257.802 10 0 59307 28800.00000 0 13353468.795 19494430.122 -9517321.503 10 0 59307 29700.00000 0 13964519.570 20299908.068 -6468760.561 10 0 59307 30600.00000 0 14443781.496 20724615.454 -3294031.323 10 0 59307 31500.00000 0 14734886.285 20783145.400 -55057.895 10 0 59307 32400.00000 0 14787106.730 20502741.525 3184992.331 10 0 59307 33300.00000 0 14557703.939 19921983.184 6362957.260 10 0 59307 34200.00000 0 14013945.854 19089007.478 9416926.486 10 0 59307 35100.00000 0 13134710.356 18059345.296 12287459.571 10 0 59307 36000.00000 0 11911604.387 16893465.029 14918751.104 10 0 59307 36900.00000 0 10349551.634 15654129.676 17259718.913 10 0 59307 37800.00000 0 8466824.214 14403680.502 19264993.950 10 0 59307 38700.00000 0 6294517.551 13201362.719 20895792.946 10 0 59307 39600.00000 0 3875491.314 12100806.138 22120657.632 10 0 59307 40500.00000 0 1262821.486 11147766.290 22916047.571 10 0 59307 41400.00000 0 -1482171.272 10378219.743 23266776.760 10 0 59307 42300.00000 0 -4292234.397 9816891.902 23166287.306 10 0 59307 43200.00000 0 -7096741.432 9476276.908 22616756.727 10 0 59307 44100.00000 0 -9824389.681 9356188.531 21629038.390 10 0 59307 45000.00000 0 -12405926.680 9443858.732 20222437.550 10 0 59307 45900.00000 0 -14776794.065 9714577.955 18424328.233 10 0 59307 46800.00000 0 -16879581.110 10132848.914 16269618.780 10 0 59307 47700.00000 0 -18666188.167 10654004.689 13800076.436 10 0 59307 48600.00000 0 -20099612.307 11226222.952 11063523.652 10 0 59307 49500.00000 0 -21155282.898 11792851.990 8112920.854 10 0 59307 50400.00000 0 -21821893.115 12294951.426 5005352.565 10 0 59307 51300.00000 0 -22101693.988 12673941.615 1800935.358 10 0 59307 52200.00000 0 -22010239.633 12874251.249 -1438332.381 10 0 59307 53100.00000 0 -21575594.489 12845852.454 -4649757.653 10 0 59307 54000.00000 0 -20837035.608 12546577.069 -7771155.036 10 0 59307 54900.00000 0 -19843303.948 11944116.683 -10742041.501 10 0 59307 55800.00000 0 -18650477.084 11017621.687 -13504801.306 10 0 59307 56700.00000 0 -17319551.712 9758830.953 -16005799.005 10 0 59307 57600.00000 0 -15913836.441 8172683.096 -18196419.331 10 0 59307 58500.00000 0 -14496263.338 6277381.340 -20034013.853 10 0 59307 59400.00000 0 -13126730.445 4103906.737 -21482736.010 10 0 59307 60300.00000 0 -11859586.410 1694997.221 -22514248.000 10 0 59307 61200.00000 0 -10741362.822 -896367.604 -23108285.177 10 0 59307 62100.00000 0 -9808849.795 -3608915.380 -23253066.205 10 0 59307 63000.00000 0 -9087596.250 -6375384.732 -22945539.955 10 0 59307 63900.00000 0 -8590898.913 -9125089.493 -22191463.048 10 0 59307 64800.00000 0 -8319323.562 -11786637.863 -21005305.210 10 0 59307 65700.00000 0 -8260779.789 -14290693.735 -19409982.846 10 0 59307 66600.00000 0 -8391147.126 -16572664.948 -17436424.723 10 0 59307 67500.00000 0 -8675426.757 -18575205.740 -15122977.122 10 0 59307 68400.00000 0 -9069370.472 -20250427.969 -12514659.253 10 0 59307 69300.00000 0 -9521517.759 -21561727.458 -9662283.174 10 0 59307 70200.00000 0 -9975554.025 -22485148.011 -6621455.544 10 0 59307 71100.00000 0 -10372888.803 -23010225.187 -3451481.337 10 0 59307 72000.00000 0 -10655342.923 -23140274.130 -214192.185 10 0 59307 72900.00000 0 -10767828.818 -22892109.752 3027276.282 10 0 59307 73800.00000 0 -10660908.256 -22295212.051 6209732.458 10 0 59307 74700.00000 0 -10293117.239 -21390373.273 9271175.886 10 0 59307 75600.00000 0 -9632958.036 -20227885.965 12152017.492 10 0 59307 76500.00000 0 -8660472.919 -18865350.439 14796247.809 10 0 59307 77400.00000 0 -7368332.577 -17365196.237 17152529.432 10 0 59307 78300.00000 0 -5762393.162 -15792023.797 19175192.182 10 0 59307 79200.00000 0 -3861698.843 -14209879.518 20825111.878 10 0 59307 80100.00000 0 -1697930.412 -12679579.433 22070456.429 10 0 59307 81000.00000 0 685676.271 -11256193.738 22887286.114 10 0 59307 81900.00000 0 3235896.158 -9986796.803 23259998.053 10 0 59307 82800.00000 0 5891499.424 -8908575.409 23181608.011 10 0 59307 83700.00000 0 8585571.754 -8047372.333 22653865.930 10 0 59307 84600.00000 0 11248074.493 -7416723.874 21687204.536 10 0 59307 85500.00000 0 13808539.075 -7017429.134 20300523.346 99